When you browse on this site, cookies collect data to enhance your experience and personalize the content and advertising you see.
Visit our Privacy Policy to learn more. By continuing to use the site, you agree to this use of cookies and data.
  • In Österreich
  • Länderverzeichnis
  • Für 7 Tage
  • Wassertemperatur
  • Wetterkarte
  • News
  • Widgets
  • user-avatar
    Anmelden

    Stündliche Wetter Wien

    Heute, 3 Juni, Mittwoch

    Zeit Temperatur Niederschläge Wind Luftdruck Luftfeuchtigkeit
    00:00 +13°C° 0.6 mm 3 m/S 739 mmHg 85%
    01:00 +13°C° 0 mm 4 m/S 739 mmHg 85%
    02:00 +13°C° 0 mm 4 m/S 738 mmHg 86%
    03:00 +12°C° 0 mm 3 m/S 738 mmHg 86%
    04:00 +12°C° 0 mm 3 m/S 737 mmHg 86%
    05:00 +13°C° 0.1 mm 4 m/S 737 mmHg 84%
    06:00 +14°C° 0.1 mm 4 m/S 737 mmHg 81%
    07:00 +17°C° 0 mm 4 m/S 737 mmHg 77%
    08:00 +18°C° 0.3 mm 4 m/S 736 mmHg 71%
    09:00 +20°C° 0.3 mm 4 m/S 736 mmHg 65%
    10:00 +21°C° 0.3 mm 4 m/S 736 mmHg 59%
    11:00 +22°C° 0.8 mm 4 m/S 736 mmHg 58%
    12:00 +22°C° 0.8 mm 4 m/S 735 mmHg 57%
    13:00 +23°C° 0.8 mm 4 m/S 735 mmHg 56%
    14:00 +22°C° 0.4 mm 3 m/S 735 mmHg 56%
    15:00 +22°C° 0.4 mm 3 m/S 734 mmHg 56%
    16:00 +23°C° 0.4 mm 2 m/S 734 mmHg 56%
    17:00 +21°C° 0 mm 2 m/S 734 mmHg 60%
    18:00 +21°C° 0 mm 1 m/S 734 mmHg 63%
    19:00 +18°C° 0 mm 0 m/S 734 mmHg 67%
    20:00 +17°C° 0 mm 0 m/S 734 mmHg 69%
    21:00 +18°C° 0 mm 1 m/S 734 mmHg 71%
    22:00 +16°C° 0 mm 1 m/S 734 mmHg 72%
    23:00 +16°C° 0.1 mm 1 m/S 733 mmHg 75%

    Morgen, 4 Juni, Donnerstag

    Zeit Temperatur Niederschläge Wind Luftdruck Luftfeuchtigkeit
    00:00 +15°C° 0.1 mm 1 m/S 733 mmHg 77%
    01:00 +15°C° 0.1 mm 1 m/S 733 mmHg 80%
    02:00 +14°C° 0 mm 1 m/S 732 mmHg 82%
    03:00 +14°C° 0 mm 1 m/S 732 mmHg 83%
    04:00 +13°C° 0 mm 1 m/S 732 mmHg 85%
    05:00 +14°C° 0 mm 1 m/S 731 mmHg 83%
    06:00 +15°C° 0 mm 1 m/S 731 mmHg 81%
    07:00 +16°C° 0 mm 1 m/S 731 mmHg 79%
    08:00 +19°C° 0 mm 1 m/S 731 mmHg 74%
    09:00 +20°C° 0 mm 1 m/S 731 mmHg 69%
    10:00 +22°C° 0 mm 1 m/S 731 mmHg 64%
    11:00 +21°C° 0 mm 2 m/S 730 mmHg 62%
    12:00 +23°C° 0 mm 2 m/S 730 mmHg 60%
    13:00 +24°C° 0 mm 3 m/S 730 mmHg 58%
    14:00 +24°C° 0.1 mm 3 m/S 729 mmHg 58%
    15:00 +25°C° 0.1 mm 3 m/S 729 mmHg 59%
    16:00 +25°C° 0.1 mm 4 m/S 728 mmHg 59%
    17:00 +23°C° 0 mm 4 m/S 728 mmHg 61%
    18:00 +22°C° 0 mm 4 m/S 727 mmHg 62%
    19:00 +21°C° 0 mm 5 m/S 727 mmHg 63%
    20:00 +20°C° 0 mm 5 m/S 727 mmHg 64%
    21:00 +19°C° 0 mm 6 m/S 727 mmHg 64%
    22:00 +19°C° 0 mm 6 m/S 727 mmHg 65%
    23:00 +17°C° 0 mm 6 m/S 727 mmHg 69%

    übermorgen, 5 Juni, Freitag

    Zeit Temperatur Niederschläge Wind Luftdruck Luftfeuchtigkeit
    00:00 +16°C° 0 mm 5 m/S 727 mmHg 74%
    01:00 +15°C° 0 mm 5 m/S 728 mmHg 78%
    02:00 +14°C° 0.1 mm 4 m/S 728 mmHg 80%
    03:00 +14°C° 0.1 mm 3 m/S 728 mmHg 82%
    04:00 +14°C° 0.1 mm 3 m/S 728 mmHg 84%
    05:00 +14°C° 1.9 mm 3 m/S 728 mmHg 87%
    06:00 +14°C° 1.9 mm 3 m/S 729 mmHg 89%
    07:00 +13°C° 1.9 mm 3 m/S 729 mmHg 92%
    08:00 +14°C° 0.7 mm 3 m/S 729 mmHg 91%
    09:00 +14°C° 0.7 mm 3 m/S 729 mmHg 90%
    10:00 +14°C° 0.7 mm 4 m/S 730 mmHg 89%
    11:00 +14°C° 0.6 mm 4 m/S 730 mmHg 89%
    12:00 +14°C° 0.6 mm 4 m/S 731 mmHg 89%
    13:00 +13°C° 0.6 mm 3 m/S 731 mmHg 89%
    14:00 +13°C° 1 mm 4 m/S 731 mmHg 88%
    15:00 +13°C° 1 mm 4 m/S 732 mmHg 88%
    16:00 +13°C° 1 mm 4 m/S 732 mmHg 87%
    17:00 +13°C° 0.2 mm 4 m/S 732 mmHg 86%
    18:00 +14°C° 0.2 mm 3 m/S 733 mmHg 84%
    19:00 +14°C° 0.2 mm 3 m/S 733 mmHg 83%
    20:00 +14°C° 0 mm 2 m/S 734 mmHg 83%
    21:00 +13°C° 0 mm 2 m/S 735 mmHg 83%
    22:00 +13°C° 0 mm 2 m/S 735 mmHg 83%
    23:00 +12°C° 0 mm 2 m/S 735 mmHg 83%

    6 Juni, Samstag

    Zeit Temperatur Niederschläge Wind Luftdruck Luftfeuchtigkeit
    00:00 +12°C° 0 mm 2 m/S 736 mmHg 83%
    01:00 +12°C° 0 mm 2 m/S 736 mmHg 82%
    02:00 +12°C° 0 mm 2 m/S 736 mmHg 82%
    03:00 +12°C° 0 mm 2 m/S 736 mmHg 81%
    04:00 +10°C° 0 mm 2 m/S 737 mmHg 80%
    05:00 +13°C° 0 mm 2 m/S 737 mmHg 76%
    06:00 +15°C° 0 mm 2 m/S 737 mmHg 73%
    07:00 +16°C° 0 mm 2 m/S 737 mmHg 69%
    08:00 +19°C° 0 mm 3 m/S 738 mmHg 62%
    09:00 +21°C° 0 mm 4 m/S 738 mmHg 56%
    10:00 +23°C° 0 mm 5 m/S 738 mmHg 49%
    11:00 +23°C° 0 mm 5 m/S 738 mmHg 50%
    12:00 +23°C° 0 mm 5 m/S 738 mmHg 50%
    13:00 +25°C° 0 mm 5 m/S 738 mmHg 51%
    14:00 +25°C° 0 mm 5 m/S 737 mmHg 53%
    15:00 +25°C° 0 mm 5 m/S 737 mmHg 55%
    16:00 +23°C° 0 mm 4 m/S 737 mmHg 58%
    17:00 +22°C° 0.4 mm 4 m/S 737 mmHg 64%
    18:00 +21°C° 0.4 mm 3 m/S 737 mmHg 70%
    19:00 +20°C° 0.4 mm 3 m/S 737 mmHg 76%
    20:00 +19°C° 0.3 mm 2 m/S 737 mmHg 79%
    21:00 +18°C° 0.3 mm 2 m/S 738 mmHg 81%
    22:00 +18°C° 0.3 mm 1 m/S 738 mmHg 84%
    23:00 +16°C° 0.5 mm 1 m/S 738 mmHg 85%

    7 Juni, Sonntag

    Zeit Temperatur Niederschläge Wind Luftdruck Luftfeuchtigkeit
    00:00 +16°C° 0.5 mm 1 m/S 738 mmHg 86%
    01:00 +16°C° 0.5 mm 1 m/S 738 mmHg 88%
    02:00 +16°C° 0.4 mm 1 m/S 738 mmHg 89%
    03:00 +15°C° 0.4 mm 1 m/S 738 mmHg 90%
    04:00 +15°C° 0.4 mm 1 m/S 738 mmHg 92%
    05:00 +16°C° 0 mm 1 m/S 738 mmHg 90%
    06:00 +16°C° 0 mm 1 m/S 738 mmHg 87%
    07:00 +18°C° 0 mm 1 m/S 738 mmHg 85%
    08:00 +19°C° 0 mm 1 m/S 738 mmHg 81%
    09:00 +20°C° 0 mm 1 m/S 738 mmHg 77%
    10:00 +21°C° 0 mm 1 m/S 738 mmHg 72%
    11:00 +22°C° 0 mm 1 m/S 737 mmHg 68%
    12:00 +23°C° 0 mm 1 m/S 737 mmHg 64%
    13:00 +24°C° 0 mm 2 m/S 736 mmHg 60%
    14:00 +24°C° 0.3 mm 1 m/S 736 mmHg 62%
    15:00 +24°C° 0.3 mm 1 m/S 736 mmHg 63%
    16:00 +24°C° 0.3 mm 1 m/S 736 mmHg 65%
    17:00 +21°C° 2 mm 3 m/S 737 mmHg 72%
    18:00 +19°C° 2 mm 5 m/S 737 mmHg 80%
    19:00 +16°C° 2 mm 6 m/S 737 mmHg 87%
    20:00 +16°C° 0.5 mm 6 m/S 738 mmHg 87%
    21:00 +15°C° 0.5 mm 6 m/S 738 mmHg 86%
    22:00 +14°C° 0.5 mm 6 m/S 739 mmHg 86%
    23:00 +14°C° 0.1 mm 6 m/S 739 mmHg 86%

    8 Juni, Montag

    Zeit Temperatur Niederschläge Wind Luftdruck Luftfeuchtigkeit
    00:00 +13°C° 0.1 mm 6 m/S 739 mmHg 86%
    01:00 +13°C° 0.1 mm 5 m/S 739 mmHg 86%
    02:00 +13°C° 0.2 mm 5 m/S 739 mmHg 86%
    03:00 +12°C° 0.2 mm 5 m/S 739 mmHg 86%
    04:00 +12°C° 0.2 mm 5 m/S 739 mmHg 86%
    05:00 +12°C° 0.4 mm 5 m/S 739 mmHg 87%
    06:00 +12°C° 0.4 mm 4 m/S 739 mmHg 87%
    07:00 +12°C° 0.4 mm 4 m/S 740 mmHg 88%
    08:00 +12°C° 0.6 mm 4 m/S 740 mmHg 87%
    09:00 +12°C° 0.6 mm 4 m/S 740 mmHg 86%
    10:00 +12°C° 0.6 mm 4 m/S 740 mmHg 85%
    11:00 +13°C° 0 mm 4 m/S 741 mmHg 79%
    12:00 +15°C° 0 mm 4 m/S 741 mmHg 73%
    13:00 +17°C° 0 mm 4 m/S 741 mmHg 67%
    14:00 +17°C° 0 mm 4 m/S 741 mmHg 67%
    15:00 +17°C° 0 mm 4 m/S 741 mmHg 67%
    16:00 +17°C° 0 mm 4 m/S 741 mmHg 68%
    17:00 +15°C° 0 mm 4 m/S 741 mmHg 70%
    18:00 +15°C° 0 mm 4 m/S 741 mmHg 72%
    19:00 +14°C° 0 mm 3 m/S 741 mmHg 74%
    20:00 +13°C° 0 mm 3 m/S 741 mmHg 75%
    21:00 +13°C° 0 mm 3 m/S 742 mmHg 77%
    22:00 +12°C° 0 mm 3 m/S 742 mmHg 78%
    23:00 +12°C° 0 mm 3 m/S 742 mmHg 79%
    Mehr zeigen